RH
27 17 32 40 57 67 62 58 56 70 85 98 99 92 94 83 90 79 76 96 98 84 83 74 70 55 41 33 29 41 32 28 58 45 50 44 36 29 24 29 43 26 31 17
26 20 18 39 36 33 45 42 53 75 86 96 94 95 94 98 82 97 89 91 98 91 79 79 66 60 48 33 26 34 34 33 64 71 62 53 55 44 44 33 25 31 34 17
46 25 25 23 36 36 46 62 83 83 73 97 96 95 88 96 78 82 98 86 98 98 84 70 67 62 52 44 32 27 23 27 27 33 29 39 54 49 43 36 32 23 27 17
82 49 44 30 26 34 43 80 99 84 75 83 96 98 94 90 96 93 98 79 96 92 93 79 66 57 58 48 42 46 44 36 28 26 22 23 25 25 35 42 23 31 24 22
93 88 71 50 43 42 39 99 100 56 56 90 93 95 95 96 95 95 94 80 65 83 76 73 59 52 49 47 46 47 50 43 39 36 28 27 25 25 26 21 19 28 30 27
66 72 90 77 72 72 60 61 96 83 65 87 96 96 96 94 98 83 88 84 84 72 63 66 58 52 49 45 44 42 50 47 45 50 42 38 46 29 25 23 24 24 40 23
36 39 70 77 76 82 96 100 100 87 64 98 97 96 97 99 88 97 85 100 88 78 63 61 65 60 61 56 58 51 45 50 52 50 65 75 39 35 33 29 26 26 24 24
37 33 42 50 56 72 80 85 88 89 78 81 90 96 96 97 94 93 96 84 97 87 70 67 75 86 66 65 55 46 49 58 65 63 76 51 42 40 35 35 28 28 31 30
16 37 33 40 47 53 86 67 72 98 94 76 96 95 96 96 97 97 89 96 98 98 74 90 94 97 83 78 74 61 56 71 62 80 66 73 47 41 37 34 43 26 30 31
4 23 35 35 41 57 87 70 71 73 74 86 96 96 95 96 96 97 98 97 98 98 98 88 96 77 72 78 76 92 95 93 76 56 57 49 51 43 45 58 36 35 30 35
4 5 32 34 40 56 74 68 80 88 69 91 96 96 95 96 96 97 98 98 98 98 98 92 92 78 70 71 74 77 86 95 92 77 73 71 62 54 57 47 41 40 41 43
4 4 16 35 37 52 66 63 95 90 90 88 95 96 97 95 96 95 98 98 98 98 94 86 87 67 67 64 91 81 85 75 77 76 70 66 62 60 58 53 52 51 51 50
5 4 5 35 34 49 71 71 85 83 86 78 92 97 96 96 96 96 96 96 98 97 97 94 83 77 66 66 60 68 82 85 75 70 66 70 71 69 68 69 67 63 57 52
5 4 4 27 35 40 64 75 78 90 89 89 87 95 96 95 96 97 96 96 95 97 97 96 96 93 83 76 71 73 84 89 74 65 58 62 66 68 69 75 72 66 63 63
4 4 4 12 36 36 58 85 89 85 94 96 89 93 96 97 97 95 94 95 96 96 97 97 97 96 98 92 81 78 70 67 62 62 62 59 64 67 76 81 82 89 96 96
4 4 4 7 37 34 52 77 79 80 89 95 94 92 94 96 98 98 96 95 95 95 96 96 96 96 97 98 98 90 85 80 82 80 79 80 81 86 98 98 97 97 95 97
4 4 4 7 38 38 50 65 64 68 82 94 96 98 94 92 92 94 96 96 96 96 96 96 96 96 96 96 96 96 97 96 97 100 98 97 97 96 96 96 96 95 95 94
3 4 6 13 40 46 50 52 54 55 64 90 95 94 94 94 94 94 94 96 96 96 95 96 96 96 95 94 95 96 96 96 96 96 96 97 96 96 96 95 94 95 95 88
3 4 7 26 44 38 40 47 50 60 65 92 96 90 92 93 95 95 97 96 94 94 96 96 96 94 93 96 97 96 96 97 98 97 97 97 96 95 94 95 95 96 95 87
3 4 8 30 36 44 48 58 66 73 82 96 99 98 97 91 95 95 96 95 95 95 94 94 95 97 97 97 96 96 96 96 97 97 96 96 95 96 96 96 95 96 96 81
3 6 20 48 52 56 60 61 62 76 85 78 84 92 90 96 95 96 95 95 95 95 95 94 95 96 96 96 96 96 96 96 96 97 96 96 96 96 97 96 96 94 85 79
5 7 17 44 53 59 60 68 76 87 92 88 85 78 76 83 93 95 96 96 96 96 96 96 90 96 96 96 96 96 96 97 96 96 96 96 96 96 96 96 98 94 86 83
6 9 12 46 23 15 23 30 36 37 56 84 83 80 82 84 96 89 86 94 95 91 96 96 90 98 97 97 97 97 97 96 97 96 96 96 96 97 97 97 94 87 80 76
9 12 17 18 22 24 26 25 25 27 26 31 68 91 90 93 95 95 88 81 75 87 88 86 91 97 97 97 97 97 97 97 97 97 96 97 97 97 96 92 81 74 67 57
13 18 23 29 30 29 27 28 28 27 28 27 31 82 94 98 97 98 88 82 84 84 84 84 98 98 97 97 98 97 98 97 97 97 97 97 95 93 83 69 58 54 48 35
24 29 32 36 39 38 34 31 29 26 24 28 51 98 100 100 99 99 98 96 90 95 91 94 100 100 99 98 98 98 97 97 97 96 96 96 87 75 70 66 57 32 20 20
32 33 39 43 45 46 46 37 32 28 26 33 41 100 100 98 100 100 98 98 100 100 100 100 100 100 100 99 99 98 98 98 99 99 92 86 82 71 51 25 20 24 29 32
Wind_Speed
23 25 23 22 19 18 17 17 16 16 23 16 14 22 28 19 16 16 25 29 16 31 40 41 38 47 54 43 45 51 33 17 18 39 26 37 36 33 44 21 9 20 6 11
24 25 22 19 18 19 21 21 16 15 24 10 14 20 22 26 28 20 21 25 15 24 36 35 39 36 46 43 50 48 46 20 11 12 22 33 41 41 33 26 19 23 14 14
25 23 23 19 17 18 19 22 15 20 16 20 20 27 20 20 27 25 24 28 13 20 29 37 38 33 37 44 40 52 50 39 33 23 27 27 35 38 38 38 24 27 25 23
26 23 23 21 17 16 17 19 10 21 24 28 28 21 17 21 22 24 25 27 27 16 24 37 30 45 37 45 39 54 45 41 43 40 33 26 32 43 44 43 49 26 37 34
26 24 22 21 20 17 16 14 23 24 27 25 25 20 18 16 12 26 25 34 29 29 24 40 43 33 48 43 46 39 44 30 37 34 39 31 32 29 32 40 45 46 33 31
25 25 22 20 20 21 18 17 19 25 27 28 29 28 22 26 23 21 30 36 31 46 36 17 28 29 29 40 45 48 46 40 30 29 31 30 23 34 35 34 37 38 42 46
23 22 22 22 20 19 19 19 19 23 30 29 32 22 30 26 19 29 27 31 37 34 41 32 23 17 23 29 27 43 49 49 30 20 20 8 31 37 40 42 39 37 37 36
22 22 20 20 21 19 19 21 22 21 31 31 27 29 30 17 14 27 27 32 32 28 27 25 21 21 21 22 26 28 41 44 22 16 19 10 21 26 31 35 38 39 36 33
22 21 22 20 20 23 21 20 18 20 29 29 25 30 26 17 1 16 24 29 32 26 31 27 14 13 19 20 25 33 37 40 37 20 16 11 28 31 25 25 27 30 32 31
25 20 21 21 20 22 20 19 17 20 26 23 22 26 26 19 5 11 27 34 37 32 26 26 13 18 23 19 34 23 34 36 32 29 14 16 19 20 24 22 24 26 24 27
30 22 20 21 19 21 20 15 16 19 23 16 22 23 18 16 11 0 24 34 36 40 26 24 12 12 21 18 28 32 34 26 22 23 18 18 18 24 28 24 22 14 15 20
35 25 18 20 18 20 20 16 13 17 17 17 19 18 16 19 15 11 18 21 30 27 31 25 25 19 29 26 21 28 23 29 33 29 31 15 23 25 26 24 24 25 26 25
38 29 19 17 17 18 18 15 14 15 12 13 13 13 13 14 15 10 6 13 24 35 30 22 20 17 23 27 27 28 25 32 29 28 28 30 27 23 20 19 18 16 19 21
41 33 21 14 16 15 16 15 13 17 16 9 13 10 11 14 15 12 5 7 9 17 29 40 27 21 21 21 21 27 29 25 25 26 30 28 27 26 24 22 23 27 28 25
43 34 23 13 14 13 14 11 10 15 15 16 11 10 9 11 13 12 9 5 6 8 15 24 31 37 33 33 32 30 32 33 34 36 36 42 36 33 32 31 29 31 29 28
44 34 25 13 12 11 11 8 9 14 16 14 8 10 9 9 10 9 7 7 4 7 11 9 10 18 20 18 23 28 33 33 32 33 32 32 28 27 27 27 29 26 22 24
44 33 24 12 10 10 9 8 11 12 14 10 7 6 8 8 8 8 6 6 4 1 6 8 11 16 13 14 12 19 22 27 26 26 25 25 26 27 28 27 31 28 23 20
44 33 21 11 9 10 8 9 10 11 11 9 6 8 8 8 7 6 6 5 6 6 8 11 10 9 8 5 12 15 17 19 20 20 21 22 29 36 34 30 27 25 20 18
42 31 19 9 7 10 10 9 9 9 7 4 11 15 9 12 9 6 4 4 2 2 4 6 4 3 1 13 16 18 19 19 22 24 30 36 38 33 30 29 25 20 18 15
40 29 18 14 12 11 8 6 7 7 8 9 14 12 14 14 11 6 3 3 2 1 2 3 4 14 20 21 23 22 22 24 27 26 27 25 24 24 23 24 21 18 16 16
42 31 20 12 10 9 7 8 7 12 7 16 21 16 15 13 13 9 5 2 1 2 3 3 4 12 19 21 22 23 24 23 24 20 21 22 20 21 20 18 16 16 17 16
38 24 14 13 14 10 8 13 11 10 11 23 20 15 15 11 10 7 6 4 2 0 5 4 6 18 21 21 20 22 23 23 23 22 22 22 21 19 17 15 14 14 14 15
32 18 16 9 12 15 12 15 12 15 20 21 21 17 14 8 6 5 5 4 3 1 1 1 2 20 22 21 20 21 22 22 21 22 21 19 17 15 13 13 12 12 12 12
23 9 14 11 10 16 19 19 21 21 22 19 17 16 11 9 6 5 5 4 2 1 0 1 7 19 20 21 20 19 18 20 19 17 16 14 12 10 10 9 9 10 11 14
16 8 9 16 18 22 24 22 22 21 22 21 17 14 8 8 5 4 4 3 2 0 1 4 11 16 17 18 19 18 17 16 15 13 12 10 9 8 7 8 10 13 16 18
10 9 10 14 19 24 27 23 21 20 18 17 12 6 4 4 5 4 3 2 2 2 3 6 11 14 15 15 15 14 14 14 13 12 10 8 7 6 9 12 15 17 17 18
13 10 12 14 19 24 31 30 24 21 17 14 7 5 3 6 4 4 3 2 3 4 7 12 15 15 15 16 15 15 14 12 10 8 7 6 8 10 14 15 16 18 18 19
Wind_Direction
338 337 324 336 331 327 326 327 331 336 334 316 238 250 258 264 275 287 246 259 230 195 194 195 203 206 208 208 209 201 199 201 181 199 208 207 210 214 211 201 197 212 210 225
344 343 338 326 332 333 337 331 331 344 346 311 312 315 275 261 261 258 256 248 213 187 197 194 204 206 206 214 209 206 200 204 140 186 219 209 213 212 209 213 221 207 198 219
349 346 347 334 329 330 337 333 338 342 339 324 302 316 297 281 254 247 233 250 196 192 201 205 207 212 208 205 207 209 211 209 209 205 215 211 212 215 214 216 216 220 222 230
354 348 347 344 333 330 338 344 329 328 317 326 329 322 293 280 269 236 221 232 222 194 194 193 207 211 210 205 206 204 203 213 219 222 227 227 229 225 220 217 230 225 238 242
2 355 352 350 340 335 325 334 340 325 318 324 334 336 308 320 273 243 229 218 214 191 212 203 202 211 214 210 207 208 204 216 217 222 226 228 234 232 233 237 242 237 239 241
351 355 360 353 345 342 335 333 330 323 321 326 329 320 302 305 295 248 218 214 216 209 198 203 226 224 224 215 213 208 203 208 207 220 222 225 231 225 229 234 231 235 231 246
333 337 346 351 345 339 335 327 316 315 315 320 322 319 314 310 265 240 215 213 214 212 208 221 237 227 222 217 217 214 204 209 208 212 189 206 237 235 236 241 246 245 248 251
334 338 329 338 344 328 319 316 319 314 314 325 329 329 330 311 251 214 212 203 200 214 210 201 202 198 213 217 212 218 217 207 205 200 196 225 227 232 230 229 241 244 242 246
330 331 338 329 334 337 325 317 313 308 314 326 328 329 345 337 293 226 208 206 201 197 192 187 181 184 203 208 208 206 210 214 207 192 209 221 244 244 242 233 238 237 236 234
345 328 335 335 334 338 330 327 317 316 317 332 334 332 342 348 348 196 205 200 195 197 181 181 180 190 191 188 199 201 202 207 207 219 225 236 238 227 218 190 242 239 228 227
352 337 328 338 337 340 336 335 317 318 319 332 336 333 342 354 348 165 178 191 193 194 192 195 194 197 194 197 199 199 193 189 206 217 217 240 231 224 199 218 218 213 216 218
354 345 328 335 337 339 338 333 327 320 318 321 328 336 342 353 349 348 180 188 187 196 200 208 209 205 202 200 187 197 196 201 203 209 223 222 219 212 209 221 234 243 249 246
353 348 331 329 335 338 340 334 335 334 333 328 327 331 348 341 349 335 242 205 196 203 201 199 194 200 202 203 209 203 197 197 206 209 215 222 234 237 229 228 229 232 221 224
353 350 336 323 335 335 337 335 331 344 345 346 335 334 342 360 357 357 314 259 246 219 210 213 211 202 202 208 205 198 202 201 209 215 225 230 239 244 249 239 240 244 232 211
354 350 341 322 333 332 338 338 332 345 350 329 325 321 330 343 348 351 345 329 259 242 224 220 220 230 234 236 239 232 228 233 235 239 244 248 248 247 247 235 232 232 227 235
354 350 346 328 330 335 338 330 337 344 342 335 331 324 319 334 350 355 343 343 318 238 223 225 196 190 200 198 213 225 225 226 229 229 236 232 231 225 219 216 216 201 182 165
355 352 349 337 330 340 342 337 340 343 345 341 329 319 312 315 336 346 8 54 55 152 177 180 181 186 198 195 201 205 210 216 219 219 224 218 214 206 172 176 162 147 141 137
355 355 354 347 340 337 326 333 337 336 348 358 1 336 330 335 307 314 331 18 67 94 109 122 135 146 164 183 197 196 203 210 214 219 215 209 179 162 164 152 143 151 156 162
357 355 358 360 352 346 340 332 339 350 351 10 7 10 355 358 338 314 279 290 2 119 106 108 104 81 122 145 152 156 160 163 167 167 170 165 161 158 151 156 159 167 172 183
1 1 9 11 1 351 353 0 9 17 28 47 17 9 1 355 357 340 300 277 245 215 178 95 81 115 130 134 135 138 142 145 143 145 147 151 153 156 159 162 165 177 197 212
6 7 13 11 10 11 23 13 15 19 20 7 1 352 349 353 356 350 354 334 238 204 198 176 153 161 153 148 147 147 146 148 150 158 155 156 163 168 173 176 186 201 215 227
4 4 11 30 35 24 26 14 12 359 359 350 349 348 344 339 343 342 338 342 320 210 180 177 169 177 171 165 159 156 156 157 161 165 169 168 172 177 185 197 210 223 234 243
4 14 20 20 30 26 12 357 344 334 336 344 345 342 336 336 333 317 323 331 338 132 210 153 209 179 174 168 166 167 165 164 169 170 174 176 180 188 201 216 230 239 243 251
9 23 29 37 25 9 358 344 337 333 328 326 334 337 321 319 308 298 302 307 294 271 265 246 181 179 177 175 174 174 176 175 177 181 184 185 190 201 214 224 234 248 263 273
25 32 31 19 12 8 358 346 338 329 325 318 315 320 303 297 286 279 290 291 300 248 214 183 181 183 180 179 179 177 179 181 180 179 180 182 185 192 212 238 263 279 286 288
29 34 7 2 4 3 0 349 339 331 327 321 317 297 283 267 269 272 265 288 262 232 193 177 176 182 180 177 176 176 178 177 170 165 164 174 196 236 268 283 289 290 288 286
356 344 343 347 347 352 355 353 344 339 335 333 316 281 262 296 275 268 262 249 237 206 176 171 169 172 172 170 172 171 167 162 165 177 196 231 269 285 293 293 293 293 293 293